Current weather by "City, St" or "zip code"  
 

Current Conditions: Spearfish / Clyde Ice, SD

Fair


43.0 F

Last Updated on Oct 21 2021, 9:55 am MDT
Humidity: 76%
Wind Speed: N 0.0 mph
Barometer 30.18 in
Dewpoint: 35.6 F
Visibility: 10.00 mi
Precip: --
Heat Index: NA
Wind Chill: NA
Current conditions at:

Spearfish / Clyde Ice, SD (KSPF)

Lat: 44.48333 Lon: 103.78333

Local Radar Image active severe weather and emergency alerts image image weather storm and storm spotter reports image weather observation monitoring service image
Local
Radar
Active
Alerts
Storm Reports Obs
Monitoring

Sign-up For Email & Text Message Weather Alert Notification Services



Advertise Here

Observation History for Spearfish / Clyde Ice, SD


Time Wind
(mph)
Vis
(mi)
Weather Precip (in) Temperature (F) Relative
Humidity
Wind
Chill
(F)
Heat
Index
(F)
Pressure
Air Dwpt altimeter
(in)
sea level
(mb)
Rmks
9:55 am MDT N 0.0 10.00 Fair -- 43.0 35.6 76% NA NA 30.18 M
8:55 am MDT N 0.0 10.00 Fair -- 37.0 33.8 87% NA NA 30.19 M
7:55 am MDT N 0.0 9.00 Fair -- 32.0 32.0 100% NA NA 30.18 M
6:55 am MDT N 0.0 10.00 Fair -- 30.0 30.2 100% NA NA 30.16 M
5:55 am MDT S 4.6 10.00 Fair -- 30.0 30.2 100% 25 NA 30.17 M
4:55 am MDT N 0.0 10.00 Fair -- 30.0 30.2 100% NA NA 30.17 M
3:55 am MDT N 0.0 10.00 Fair -- 30.0 30.2 100% NA NA 30.16 M
2:55 am MDT W 3.5 10.00 Fair -- 30.0 30.2 100% NA NA 30.16 M
1:55 am MDT S 4.6 10.00 Fair -- 28.0 28.4 100% 23 NA 30.15 M
12:55 am MDT S 4.6 10.00 Fair -- 27.0 26.6 100% 22 NA 30.16 M
11:55 pm MDT S 5.8 10.00 Fair -- 30.0 30.2 100% 24 NA 30.17 M
10:55 pm MDT N 0.0 10.00 Fair -- 28.0 28.4 100% NA NA 30.18 M
9:55 pm MDT E 4.6 10.00 Fair -- 30.0 30.2 100% 25 NA 30.17 M
8:55 pm MDT N 0.0 10.00 Fair -- 30.0 30.2 100% NA NA 30.17 M
7:55 pm MDT N 0.0 10.00 Fair -- 32.0 32.0 100% NA NA 30.17 M
6:55 pm MDT S 10.4 10.00 Fair -- 34.0 33.8 100% 26 NA 30.16 M
5:55 pm MDT S 8.1 10.00 Fair -- 36.0 32.0 87% 30 NA 30.15 M
4:55 pm MDT W 3.5 10.00 Fair -- 39.0 32.0 75% NA NA 30.16 M
3:55 pm MDT NW 8.1 10.00 Fair -- 39.0 32.0 75% 33 NA 30.16 M
2:55 pm MDT W 10.4 10.00 A Few Clouds -- 37.0 32.0 81% 30 NA 30.17 M
1:55 pm MDT N 0.0 10.00 Partly Cloudy -- 36.0 32.0 87% NA NA 30.20 M
12:55 pm MDT NW 8.1 G 15.0 10.00 Mostly Cloudy -- 34.0 30.2 87% 27 NA 30.18 M
11:55 am MDT NW 11.5 10.00 Mostly Cloudy -- 34.0 30.2 87% 26 NA 30.19 M
10:55 am MDT W 12.7 10.00 Overcast -- 34.0 30.2 87% 25 NA 30.20 M

Regional Weather Observation


Hulett Municipal Airport, WY (KW43)

Fair
43.0 F

Ellsworth Air Force Base, SD (KRCA)

Fog/Mist
36.0 F

Rapid City, Rapid City Regional Airport, SD (KRAP)

Fog
36.0 F

Buffalo, SD (K2WX)

NULL
40.0 F

Mondell Field, WY (KECS)

Fair
41.0 F

Custer, Custer County Airport, SD (KCUT)

Fair
49.0 F

Advertise Here


Advertise Here